IBE6123 LEMD-CYQM

Flight info

Callsign IBE6123
Flight time 6h 10m
Altitude 38000
Route ZMR DCT 4237N00840W 4336N01149W/M084F380 4431N01503W/M084F400 4520N01824W 4603N02149W 4640N02520W 4710N02855W 4733N03234W 4750N03616W 4759N03959W 4801N04343W 4756N04727W/N0473F400 4744N05109W 4739N05215W DCT TESOX
Aircraft A359/H-SDE2E3GHIJ3J4J5LM1ORWXY/LB1D1

Departure

Time 2026-05-07 17:31
Airport Adolfo Suárez Madrid–Barajas Airport (LEMD)

Arrival

Time 2026-05-07 23:42
Airport Greater Moncton Roméo LeBlanc International Airport (CYQM)
Time Latitude Longitude Altitude Speed Heading
2026-05-07 17:01 40.49539 -3.56872 1982 ft 0 kts 87°
2026-05-07 17:17 40.49538 -3.56881 1981 ft 4 kts 87°
2026-05-07 17:17 40.49537 -3.56916 1981 ft 4 kts 87°
2026-05-07 17:18 40.49536 -3.56951 1979 ft 4 kts 87°
2026-05-07 17:18 40.49536 -3.56982 1982 ft 4 kts 107°
2026-05-07 17:18 40.49549 -3.57002 1982 ft 5 kts 174°
2026-05-07 17:18 40.49573 -3.57003 1983 ft 3 kts 180°
2026-05-07 17:19 40.49574 -3.57003 1984 ft 0 kts 180°
2026-05-07 17:21 40.49565 -3.57003 1983 ft 3 kts 180°
2026-05-07 17:21 40.49519 -3.57003 1985 ft 9 kts 180°
2026-05-07 17:21 40.49445 -3.57003 1984 ft 12 kts 180°
2026-05-07 17:22 40.49359 -3.57002 1981 ft 13 kts 180°
2026-05-07 17:22 40.49294 -3.57042 1984 ft 9 kts 249°
2026-05-07 17:22 40.49275 -3.57104 1986 ft 6 kts 217°
2026-05-07 17:22 40.49239 -3.57114 1988 ft 6 kts 188°
2026-05-07 17:23 40.49198 -3.57121 1987 ft 6 kts 187°
2026-05-07 17:23 40.49150 -3.57119 1987 ft 8 kts 173°
2026-05-07 17:23 40.49083 -3.57116 1989 ft 10 kts 187°
2026-05-07 17:23 40.49054 -3.57180 1990 ft 8 kts 258°
2026-05-07 17:24 40.49017 -3.57220 1989 ft 8 kts 195°
2026-05-07 17:24 40.48945 -3.57227 1990 ft 12 kts 181°
2026-05-07 17:24 40.48858 -3.57228 1989 ft 13 kts 179°
2026-05-07 17:24 40.48836 -3.57227 1990 ft 0 kts 180°
2026-05-07 17:26 40.48832 -3.57227 1990 ft 2 kts 180°
2026-05-07 17:26 40.48796 -3.57227 1990 ft 8 kts 180°
2026-05-07 17:26 40.48739 -3.57227 1990 ft 8 kts 180°
2026-05-07 17:26 40.48703 -3.57246 1994 ft 3 kts 215°
2026-05-07 17:27 40.48695 -3.57255 1995 ft 1 kts 220°
2026-05-07 17:27 40.48683 -3.57271 1995 ft 5 kts 227°
2026-05-07 17:27 40.48655 -3.57317 1999 ft 6 kts 232°
2026-05-07 17:27 40.48630 -3.57358 2000 ft 5 kts 232°
2026-05-07 17:28 40.48608 -3.57397 2001 ft 6 kts 232°
2026-05-07 17:28 40.48580 -3.57445 2001 ft 7 kts 232°
2026-05-07 17:28 40.48545 -3.57503 2001 ft 9 kts 231°
2026-05-07 17:28 40.48494 -3.57552 2001 ft 9 kts 214°
2026-05-07 17:29 40.48447 -3.57554 2002 ft 6 kts 149°
2026-05-07 17:29 40.48439 -3.57547 2001 ft 0 kts 144°
2026-05-07 17:30 40.48438 -3.57546 2002 ft 3 kts 144°
2026-05-07 17:30 40.48305 -3.57414 2003 ft 52 kts 142°
2026-05-07 17:30 40.47860 -3.56961 2003 ft 109 kts 142°
2026-05-07 17:30 40.47121 -3.56209 1984 ft 159 kts 142°
2026-05-07 17:31 40.46188 -3.55272 2403 ft 164 kts 143°
2026-05-07 17:31 40.45254 -3.54367 2905 ft 172 kts 143°
2026-05-07 17:31 40.44255 -3.53436 3418 ft 178 kts 144°
2026-05-07 17:31 40.43244 -3.52501 3993 ft 177 kts 143°
2026-05-07 17:32 40.42227 -3.51545 4408 ft 181 kts 140°
2026-05-07 17:32 40.41222 -3.50567 4854 ft 180 kts 138°
2026-05-07 17:32 40.40255 -3.49588 5416 ft 171 kts 137°
2026-05-07 17:32 40.39176 -3.48830 5703 ft 187 kts 162°
2026-05-07 17:33 40.37831 -3.49048 5894 ft 211 kts 204°
2026-05-07 17:33 40.36826 -3.50558 6103 ft 236 kts 246°
2026-05-07 17:33 40.36520 -3.52773 6335 ft 257 kts 262°
2026-05-07 17:33 40.36387 -3.55166 6550 ft 274 kts 263°
2026-05-07 17:34 40.36218 -3.57698 6983 ft 281 kts 261°
2026-05-07 17:34 40.36010 -3.60268 7555 ft 284 kts 261°
2026-05-07 17:34 40.35778 -3.62849 8134 ft 286 kts 261°
2026-05-07 17:34 40.35532 -3.65442 8715 ft 287 kts 261°
2026-05-07 17:35 40.35276 -3.68046 9302 ft 289 kts 261°
2026-05-07 17:35 40.35014 -3.70670 9858 ft 291 kts 261°
2026-05-07 17:35 40.34748 -3.73306 10466 ft 291 kts 261°
2026-05-07 17:35 40.34482 -3.75933 11086 ft 290 kts 261°
2026-05-07 17:36 40.34216 -3.78552 11687 ft 290 kts 262°
2026-05-07 17:36 40.33951 -3.81143 12226 ft 293 kts 262°
2026-05-07 17:36 40.33672 -3.83831 12483 ft 304 kts 262°
2026-05-07 17:36 40.33382 -3.86635 12707 ft 317 kts 262°
2026-05-07 17:37 40.33083 -3.89546 12929 ft 329 kts 262°
2026-05-07 17:37 40.32771 -3.92574 13143 ft 340 kts 262°
2026-05-07 17:37 40.32448 -3.95698 13418 ft 349 kts 262°
2026-05-07 17:37 40.32119 -3.98867 13844 ft 352 kts 262°
2026-05-07 17:38 40.31787 -4.02064 14326 ft 354 kts 261°
2026-05-07 17:38 40.31452 -4.05276 14769 ft 357 kts 261°
2026-05-07 17:38 40.31117 -4.08471 15229 ft 359 kts 261°
2026-05-07 17:38 40.30846 -4.11735 15713 ft 361 kts 266°
2026-05-07 17:39 40.31114 -4.15027 16154 ft 367 kts 283°
2026-05-07 17:39 40.32189 -4.18069 16588 ft 375 kts 303°
2026-05-07 17:39 40.33971 -4.20603 17030 ft 381 kts 314°
2026-05-07 17:39 40.35944 -4.22955 17441 ft 385 kts 315°
2026-05-07 17:40 40.37957 -4.25303 17955 ft 386 kts 315°
2026-05-07 17:40 40.39972 -4.27646 18334 ft 388 kts 315°
2026-05-07 17:40 40.41999 -4.30026 18627 ft 394 kts 315°
2026-05-07 17:40 40.44040 -4.32435 19041 ft 395 kts 315°
2026-05-07 17:41 40.46097 -4.34864 19372 ft 399 kts 315°
2026-05-07 17:41 40.48175 -4.37316 19733 ft 402 kts 315°
2026-05-07 17:41 40.50235 -4.39749 20087 ft 405 kts 315°
2026-05-07 17:41 40.52339 -4.42235 20425 ft 408 kts 315°
2026-05-07 17:42 40.54455 -4.44740 20774 ft 410 kts 315°
2026-05-07 17:42 40.56583 -4.47261 21108 ft 413 kts 315°
2026-05-07 17:42 40.58726 -4.49802 21421 ft 415 kts 315°
2026-05-07 17:42 40.60880 -4.52358 21748 ft 418 kts 315°
2026-05-07 17:43 40.63044 -4.54930 22069 ft 420 kts 315°
2026-05-07 17:43 40.65222 -4.57519 22405 ft 422 kts 315°
2026-05-07 17:43 40.67385 -4.60093 22695 ft 425 kts 315°
2026-05-07 17:43 40.69587 -4.62716 22995 ft 427 kts 315°
2026-05-07 17:44 40.71793 -4.65347 23296 ft 429 kts 315°
2026-05-07 17:44 40.74012 -4.67995 23584 ft 431 kts 315°
2026-05-07 17:44 40.76242 -4.70658 23876 ft 433 kts 315°
2026-05-07 17:44 40.78487 -4.73342 24178 ft 435 kts 315°
2026-05-07 17:45 40.80729 -4.76026 24485 ft 436 kts 315°
2026-05-07 17:45 40.82980 -4.78723 24824 ft 436 kts 315°
2026-05-07 17:45 40.85228 -4.81418 25171 ft 436 kts 315°
2026-05-07 17:45 40.87477 -4.84118 25499 ft 437 kts 315°
2026-05-07 17:46 40.89731 -4.86825 25839 ft 437 kts 315°
2026-05-07 17:46 40.91981 -4.89531 26157 ft 438 kts 315°
2026-05-07 17:46 40.94235 -4.92245 26493 ft 438 kts 315°
2026-05-07 17:46 40.96493 -4.94966 26832 ft 439 kts 315°
2026-05-07 17:47 40.98725 -4.97658 27175 ft 439 kts 315°
2026-05-07 17:47 41.00989 -5.00392 27516 ft 440 kts 315°
2026-05-07 17:47 41.03253 -5.03128 27861 ft 441 kts 315°
2026-05-07 17:47 41.05528 -5.05880 28207 ft 441 kts 315°
2026-05-07 17:48 41.07772 -5.08598 28553 ft 442 kts 315°
2026-05-07 17:48 41.10045 -5.11353 28891 ft 443 kts 315°
2026-05-07 17:48 41.12320 -5.14112 29237 ft 444 kts 315°
2026-05-07 17:48 41.14598 -5.16878 29582 ft 444 kts 315°
2026-05-07 17:49 41.16883 -5.19656 29913 ft 445 kts 315°
2026-05-07 17:49 41.19168 -5.22437 30244 ft 446 kts 315°
2026-05-07 17:49 41.21461 -5.25230 30574 ft 447 kts 315°
2026-05-07 17:49 41.23757 -5.28030 30880 ft 448 kts 315°
2026-05-07 17:50 41.26061 -5.30841 31133 ft 451 kts 315°
2026-05-07 17:50 41.28377 -5.33671 31402 ft 453 kts 315°
2026-05-07 17:50 41.30698 -5.36509 31692 ft 454 kts 315°
2026-05-07 17:50 41.32994 -5.39320 31962 ft 455 kts 315°
2026-05-07 17:51 41.35324 -5.42176 32199 ft 456 kts 315°
2026-05-07 17:51 41.37667 -5.45050 32429 ft 458 kts 315°
2026-05-07 17:51 41.40012 -5.47930 32644 ft 459 kts 315°
2026-05-07 17:51 41.42364 -5.50820 32858 ft 461 kts 315°
2026-05-07 17:52 41.44728 -5.53729 33079 ft 462 kts 315°
2026-05-07 17:52 41.47091 -5.56639 33292 ft 463 kts 315°
2026-05-07 17:52 41.49462 -5.59563 33514 ft 463 kts 315°
2026-05-07 17:52 41.51709 -5.62568 33758 ft 461 kts 309°
2026-05-07 17:53 41.53650 -5.65983 34045 ft 458 kts 301°
2026-05-07 17:53 41.55253 -5.69645 34339 ft 456 kts 297°
2026-05-07 17:53 41.56730 -5.73390 34588 ft 456 kts 296°
2026-05-07 17:53 41.58147 -5.77183 34753 ft 457 kts 295°
2026-05-07 17:54 41.59544 -5.81002 34945 ft 458 kts 295°
2026-05-07 17:54 41.60927 -5.84786 35100 ft 459 kts 295°
2026-05-07 17:54 41.62337 -5.88617 35308 ft 459 kts 295°
2026-05-07 17:54 41.63756 -5.92446 35529 ft 460 kts 295°
2026-05-07 17:55 41.65186 -5.96284 35704 ft 461 kts 295°
2026-05-07 17:55 41.66622 -6.00130 35897 ft 461 kts 295°
2026-05-07 17:55 41.68056 -6.03969 36093 ft 461 kts 295°
2026-05-07 17:55 41.69489 -6.07808 36326 ft 461 kts 295°
2026-05-07 17:56 41.70907 -6.11609 36476 ft 462 kts 295°
2026-05-07 17:56 41.72342 -6.15465 36652 ft 463 kts 295°
2026-05-07 17:56 41.73777 -6.19327 36818 ft 463 kts 295°
2026-05-07 17:56 41.75214 -6.23201 36997 ft 464 kts 295°
2026-05-07 17:57 41.76646 -6.27066 37205 ft 463 kts 295°
2026-05-07 17:57 41.77594 -6.29629 37346 ft 463 kts 295°
2026-05-07 17:57 41.79502 -6.34792 37599 ft 462 kts 295°
2026-05-07 17:57 41.80930 -6.38663 37782 ft 462 kts 295°
2026-05-07 17:58 41.82358 -6.42536 37931 ft 462 kts 295°
2026-05-07 17:58 41.83298 -6.45090 38093 ft 461 kts 295°
2026-05-07 17:58 41.85178 -6.50207 38347 ft 460 kts 295°
2026-05-07 17:58 41.86590 -6.54055 38493 ft 460 kts 295°
2026-05-07 17:59 41.88001 -6.57906 38674 ft 459 kts 295°
2026-05-07 17:59 41.89411 -6.61760 38833 ft 459 kts 295°
2026-05-07 17:59 41.91748 -6.68157 39074 ft 458 kts 294°
2026-05-07 18:00 41.93154 -6.72014 39212 ft 458 kts 294°
2026-05-07 18:00 41.94553 -6.75855 39349 ft 457 kts 294°
2026-05-07 18:00 41.95949 -6.79696 39485 ft 457 kts 294°
2026-05-07 18:00 41.97345 -6.83539 39592 ft 457 kts 294°
2026-05-07 18:01 42.00131 -6.91230 39768 ft 458 kts 294°
2026-05-07 18:01 42.02897 -6.98884 39888 ft 460 kts 294°
2026-05-07 18:02 42.07101 -7.10554 39889 ft 461 kts 294°
2026-05-07 18:03 42.09868 -7.18255 39887 ft 453 kts 294°
2026-05-07 18:03 42.12593 -7.25864 39887 ft 449 kts 294°
2026-05-07 18:04 42.15299 -7.33448 39888 ft 448 kts 294°
2026-05-07 18:04 42.17975 -7.40967 39889 ft 447 kts 294°
2026-05-07 18:05 42.20657 -7.48522 39888 ft 445 kts 294°
2026-05-07 18:05 42.23327 -7.56059 39887 ft 444 kts 294°
2026-05-07 18:06 42.25986 -7.63588 39888 ft 443 kts 293°
2026-05-07 18:06 42.28614 -7.71048 39888 ft 442 kts 293°
2026-05-07 18:07 42.31255 -7.78567 39888 ft 442 kts 293°
2026-05-07 18:07 42.33884 -7.86078 39888 ft 441 kts 293°
2026-05-07 18:08 42.36512 -7.93597 39885 ft 442 kts 293°
2026-05-07 18:08 42.39117 -8.01078 39887 ft 442 kts 293°
2026-05-07 18:09 42.41734 -8.08602 39887 ft 441 kts 293°
2026-05-07 18:09 42.44346 -8.16134 39888 ft 441 kts 293°
2026-05-07 18:10 42.46951 -8.23671 39887 ft 441 kts 292°
2026-05-07 18:10 42.49548 -8.31206 39888 ft 441 kts 292°
2026-05-07 18:11 42.52140 -8.38747 39890 ft 442 kts 292°
2026-05-07 18:11 42.54736 -8.46319 39887 ft 443 kts 292°
2026-05-07 18:12 42.57325 -8.53891 39888 ft 443 kts 292°
2026-05-07 18:12 42.59912 -8.61480 39887 ft 443 kts 292°
2026-05-07 18:13 42.62475 -8.69024 39887 ft 443 kts 292°
2026-05-07 18:13 42.65006 -8.76666 39887 ft 443 kts 291°
2026-05-07 18:14 42.67513 -8.84325 39888 ft 443 kts 291°
2026-05-07 18:14 42.70019 -8.91984 39889 ft 443 kts 291°
2026-05-07 18:15 42.72527 -8.99647 39888 ft 444 kts 291°
2026-05-07 18:15 42.75035 -9.07323 39888 ft 444 kts 291°
2026-05-07 18:16 42.77522 -9.14958 39887 ft 444 kts 291°
2026-05-07 18:16 42.80023 -9.22659 39888 ft 443 kts 291°
2026-05-07 18:17 42.82515 -9.30355 39888 ft 443 kts 291°
2026-05-07 18:17 42.84996 -9.38039 39888 ft 443 kts 291°
2026-05-07 18:18 42.87456 -9.45683 39887 ft 443 kts 290°
2026-05-07 18:18 42.89931 -9.53390 39888 ft 443 kts 290°
2026-05-07 18:19 42.92399 -9.61101 39887 ft 443 kts 290°
2026-05-07 18:19 42.94867 -9.68834 39887 ft 443 kts 290°
2026-05-07 18:20 42.97310 -9.76513 39888 ft 443 kts 290°
2026-05-07 18:20 42.99768 -9.84260 39888 ft 443 kts 290°
2026-05-07 18:21 43.02216 -9.91994 39888 ft 443 kts 290°
2026-05-07 18:21 43.04646 -9.99698 39888 ft 443 kts 290°
2026-05-07 18:22 43.07082 -10.07443 39888 ft 443 kts 290°
2026-05-07 18:22 43.09521 -10.15221 39888 ft 444 kts 290°
2026-05-07 18:23 43.11952 -10.22997 39888 ft 445 kts 290°
2026-05-07 18:23 43.14367 -10.30741 39888 ft 445 kts 290°
2026-05-07 18:24 43.16789 -10.38530 39887 ft 445 kts 290°
2026-05-07 18:24 43.19211 -10.46347 39888 ft 446 kts 289°
2026-05-07 18:25 43.21631 -10.54179 39888 ft 446 kts 289°
2026-05-07 18:25 43.24043 -10.62011 39888 ft 446 kts 289°
2026-05-07 18:26 43.26453 -10.69856 39888 ft 446 kts 289°
2026-05-07 18:26 43.28860 -10.77714 39888 ft 446 kts 289°
2026-05-07 18:27 43.31260 -10.85576 39888 ft 447 kts 289°
2026-05-07 18:27 43.33657 -10.93453 39888 ft 447 kts 289°
2026-05-07 18:28 43.36038 -11.01302 39888 ft 447 kts 289°
2026-05-07 18:28 43.38428 -11.09201 39888 ft 448 kts 289°
2026-05-07 18:29 43.40819 -11.17130 39888 ft 449 kts 289°
2026-05-07 18:29 43.43207 -11.25075 39888 ft 449 kts 289°
2026-05-07 18:30 43.45591 -11.33029 39888 ft 449 kts 289°
2026-05-07 18:30 43.47957 -11.40947 39888 ft 450 kts 288°
2026-05-07 18:31 43.50331 -11.48918 39887 ft 450 kts 288°
2026-05-07 18:31 43.52707 -11.56918 39888 ft 451 kts 288°
2026-05-07 18:32 43.55080 -11.64935 39888 ft 451 kts 288°
2026-05-07 18:32 43.57432 -11.72906 39887 ft 451 kts 288°
2026-05-07 18:33 43.59796 -11.80940 39888 ft 452 kts 288°
2026-05-07 18:33 43.62187 -11.88974 39888 ft 452 kts 289°
2026-05-07 18:34 43.64611 -11.96988 39888 ft 452 kts 289°
2026-05-07 18:34 43.67027 -12.05008 39887 ft 452 kts 289°
2026-05-07 18:35 43.69418 -12.12989 39888 ft 453 kts 289°
2026-05-07 18:35 43.71818 -12.21044 39888 ft 453 kts 288°
2026-05-07 18:36 43.74209 -12.29095 39890 ft 453 kts 288°
2026-05-07 18:36 43.76597 -12.37161 39898 ft 453 kts 288°
2026-05-07 18:37 43.78983 -12.45243 39907 ft 454 kts 288°
2026-05-07 18:37 43.81369 -12.53351 39906 ft 454 kts 288°
2026-05-07 18:38 43.83738 -12.61426 39906 ft 455 kts 288°
2026-05-07 18:38 43.86119 -12.69571 39906 ft 455 kts 288°
2026-05-07 18:39 43.88479 -12.77671 39906 ft 456 kts 288°
2026-05-07 18:39 43.90853 -12.85843 39906 ft 457 kts 288°
2026-05-07 18:40 43.93225 -12.94035 39905 ft 458 kts 288°
2026-05-07 18:40 43.95595 -13.02246 39904 ft 459 kts 288°
2026-05-07 18:41 43.97963 -13.10480 39906 ft 460 kts 288°
2026-05-07 18:41 44.00315 -13.18683 39906 ft 461 kts 288°
2026-05-07 18:42 44.02681 -13.26961 39906 ft 462 kts 288°
2026-05-07 18:42 44.05053 -13.35286 39906 ft 462 kts 288°
2026-05-07 18:43 44.07413 -13.43602 39906 ft 463 kts 288°
2026-05-07 18:43 44.09767 -13.51919 39906 ft 464 kts 288°
2026-05-07 18:44 44.12128 -13.60294 39906 ft 465 kts 288°
2026-05-07 18:44 44.14486 -13.68683 39906 ft 465 kts 288°
2026-05-07 18:45 44.16826 -13.77040 39906 ft 465 kts 288°
2026-05-07 18:45 44.19173 -13.85451 39906 ft 466 kts 288°
2026-05-07 18:46 44.21516 -13.93871 39906 ft 466 kts 288°
2026-05-07 18:46 44.23850 -14.02291 39906 ft 466 kts 288°
2026-05-07 18:47 44.26167 -14.10683 39906 ft 466 kts 287°
2026-05-07 18:47 44.28103 -14.17713 39906 ft 466 kts 287°
2026-05-07 18:48 44.30423 -14.26164 39906 ft 466 kts 287°
2026-05-07 18:48 44.33117 -14.36015 39906 ft 466 kts 287°
2026-05-07 18:49 44.35037 -14.43061 39906 ft 467 kts 287°
2026-05-07 18:49 44.37346 -14.51558 39908 ft 467 kts 287°
2026-05-07 18:50 44.39648 -14.60065 39918 ft 468 kts 287°
2026-05-07 18:50 44.41953 -14.68613 39918 ft 469 kts 287°
2026-05-07 18:51 44.44241 -14.77125 39913 ft 470 kts 287°
2026-05-07 18:51 44.46543 -14.85723 39913 ft 471 kts 287°
2026-05-07 18:52 44.48839 -14.94327 39914 ft 472 kts 287°
2026-05-07 18:52 44.51118 -15.02897 39915 ft 473 kts 287°
2026-05-07 18:53 44.53404 -15.11557 39916 ft 473 kts 287°
2026-05-07 18:53 44.55663 -15.20237 39913 ft 474 kts 287°
2026-05-07 18:54 44.57919 -15.28940 39916 ft 475 kts 287°
2026-05-07 18:54 44.60176 -15.37667 39916 ft 476 kts 287°
2026-05-07 18:55 44.62418 -15.46358 39916 ft 477 kts 287°
2026-05-07 18:55 44.64672 -15.55130 39914 ft 477 kts 287°
2026-05-07 18:56 44.66924 -15.63924 39916 ft 477 kts 287°
2026-05-07 18:56 44.69168 -15.72724 39914 ft 478 kts 287°
2026-05-07 18:57 44.71389 -15.81465 39913 ft 478 kts 287°
2026-05-07 18:57 44.73624 -15.90291 39913 ft 478 kts 287°
2026-05-07 18:58 44.75847 -15.99110 39913 ft 478 kts 287°
2026-05-07 18:58 44.78069 -16.07960 39913 ft 479 kts 287°
2026-05-07 18:59 44.80276 -16.16782 39922 ft 481 kts 287°
2026-05-07 18:59 44.82494 -16.25675 39926 ft 481 kts 287°
2026-05-07 19:00 44.84706 -16.34582 39923 ft 481 kts 287°
2026-05-07 19:00 44.86899 -16.43447 39915 ft 480 kts 287°
2026-05-07 19:01 44.89094 -16.52358 39907 ft 480 kts 287°
2026-05-07 19:01 44.91281 -16.61267 39906 ft 480 kts 287°
2026-05-07 19:02 44.93456 -16.70168 39906 ft 480 kts 286°
2026-05-07 19:02 44.95616 -16.79037 39906 ft 480 kts 287°
2026-05-07 19:03 44.97778 -16.87955 39906 ft 480 kts 286°
2026-05-07 19:03 44.99935 -16.96885 39906 ft 480 kts 286°
2026-05-07 19:04 45.02085 -17.05821 39906 ft 480 kts 286°
2026-05-07 19:04 45.04215 -17.14711 39906 ft 480 kts 286°
2026-05-07 19:05 45.06356 -17.23681 39907 ft 480 kts 286°
2026-05-07 19:05 45.08476 -17.32600 39906 ft 480 kts 286°
2026-05-07 19:06 45.10598 -17.41560 39906 ft 480 kts 286°
2026-05-07 19:06 45.13766 -17.55010 39906 ft 480 kts 286°
2026-05-07 19:07 45.15873 -17.64001 39906 ft 480 kts 286°
2026-05-07 19:07 45.17972 -17.72992 39906 ft 480 kts 286°
2026-05-07 19:08 45.20061 -17.81976 39906 ft 479 kts 286°
2026-05-07 19:08 45.22139 -17.90952 39906 ft 479 kts 286°
2026-05-07 19:09 45.24199 -17.99889 39906 ft 479 kts 286°
2026-05-07 19:09 45.26263 -18.08878 39906 ft 480 kts 286°
2026-05-07 19:10 45.28328 -18.17909 39906 ft 480 kts 286°
2026-05-07 19:10 45.30372 -18.26887 39906 ft 480 kts 286°
2026-05-07 19:11 45.32426 -18.35943 39906 ft 480 kts 286°
2026-05-07 19:11 45.34470 -18.44981 39906 ft 480 kts 286°
2026-05-07 19:12 45.36509 -18.53977 39906 ft 481 kts 286°
2026-05-07 19:12 45.38557 -18.63047 39906 ft 481 kts 286°
2026-05-07 19:13 45.40597 -18.72127 39906 ft 481 kts 285°
2026-05-07 19:13 45.42628 -18.81209 39906 ft 481 kts 285°
2026-05-07 19:14 45.44644 -18.90262 39906 ft 482 kts 285°
2026-05-07 19:14 45.46664 -18.99370 39908 ft 482 kts 285°
2026-05-07 19:15 45.48679 -19.08498 39906 ft 482 kts 285°
2026-05-07 19:15 45.50687 -19.17634 39906 ft 483 kts 285°
2026-05-07 19:16 45.52678 -19.26732 39908 ft 483 kts 285°
2026-05-07 19:16 45.54673 -19.35882 39906 ft 483 kts 285°
2026-05-07 19:17 45.56661 -19.45048 39906 ft 483 kts 285°
2026-05-07 19:17 45.58641 -19.54215 39906 ft 483 kts 285°
2026-05-07 19:18 45.60613 -19.63384 39906 ft 483 kts 285°
2026-05-07 19:18 45.62565 -19.72501 39906 ft 483 kts 285°
2026-05-07 19:19 45.64523 -19.81682 39906 ft 483 kts 285°
2026-05-07 19:19 45.66476 -19.90888 39906 ft 483 kts 285°
2026-05-07 19:20 45.68419 -20.00079 39906 ft 483 kts 285°
2026-05-07 19:20 45.70341 -20.09223 39907 ft 482 kts 285°
2026-05-07 19:21 45.72267 -20.18429 39906 ft 483 kts 285°
2026-05-07 19:21 45.74187 -20.27639 39906 ft 483 kts 285°
2026-05-07 19:22 45.76100 -20.36856 39911 ft 483 kts 285°
2026-05-07 19:22 45.78007 -20.46080 39913 ft 483 kts 285°
2026-05-07 19:23 45.79907 -20.55325 39916 ft 483 kts 285°
2026-05-07 19:23 45.81801 -20.64584 39914 ft 484 kts 285°
2026-05-07 19:24 45.83679 -20.73799 39914 ft 484 kts 285°
2026-05-07 19:24 45.85563 -20.83088 39922 ft 485 kts 285°
2026-05-07 19:25 45.87440 -20.92392 39924 ft 485 kts 285°
2026-05-07 19:25 45.89309 -21.01700 39924 ft 485 kts 285°
2026-05-07 19:26 45.91161 -21.10964 39923 ft 485 kts 285°
2026-05-07 19:26 45.93019 -21.20300 39925 ft 485 kts 285°
2026-05-07 19:27 45.94870 -21.29647 39926 ft 485 kts 285°
2026-05-07 19:27 45.96709 -21.38984 39923 ft 485 kts 285°
2026-05-07 19:28 45.98533 -21.48276 39924 ft 486 kts 285°
2026-05-07 19:28 46.00362 -21.57641 39923 ft 486 kts 285°
2026-05-07 19:29 46.02184 -21.67019 39922 ft 485 kts 285°
2026-05-07 19:29 46.03979 -21.76294 39926 ft 484 kts 285°
2026-05-07 19:30 46.05777 -21.85647 39925 ft 484 kts 285°
2026-05-07 19:30 46.07573 -21.95017 39925 ft 485 kts 285°
2026-05-07 19:31 46.09365 -22.04404 39926 ft 485 kts 285°
2026-05-07 19:31 46.11144 -22.13768 39925 ft 484 kts 285°
2026-05-07 19:32 46.12920 -22.23153 39926 ft 484 kts 285°
2026-05-07 19:32 46.14671 -22.32466 39926 ft 484 kts 285°
2026-05-07 19:33 46.16427 -22.41844 39923 ft 484 kts 285°
2026-05-07 19:33 46.18172 -22.51221 39926 ft 483 kts 285°
2026-05-07 19:34 46.19911 -22.60599 39925 ft 483 kts 285°
2026-05-07 19:34 46.21645 -22.69977 39926 ft 482 kts 285°
2026-05-07 19:35 46.23074 -22.77760 39934 ft 482 kts 285°
2026-05-07 19:35 46.25060 -22.88641 39943 ft 482 kts 285°
2026-05-07 19:36 46.26763 -22.98016 39944 ft 481 kts 285°
2026-05-07 19:36 46.28171 -23.05805 39944 ft 481 kts 285°
2026-05-07 19:37 46.29859 -23.15180 39945 ft 481 kts 285°
2026-05-07 19:37 46.31536 -23.24550 39942 ft 481 kts 285°
2026-05-07 19:38 46.33198 -23.33889 39944 ft 481 kts 285°
2026-05-07 19:38 46.34861 -23.43277 39941 ft 481 kts 285°
2026-05-07 19:39 46.36505 -23.52607 39944 ft 481 kts 285°
2026-05-07 19:39 46.38152 -23.62002 39942 ft 481 kts 285°
2026-05-07 19:40 46.39794 -23.71416 39935 ft 481 kts 285°
2026-05-07 19:40 46.41425 -23.80822 39935 ft 481 kts 285°
2026-05-07 19:41 46.43045 -23.90210 39933 ft 481 kts 285°
2026-05-07 19:41 46.44662 -23.99633 39935 ft 481 kts 285°
2026-05-07 19:42 46.46273 -24.09068 39934 ft 481 kts 285°
2026-05-07 19:42 46.47873 -24.18492 39943 ft 481 kts 285°
2026-05-07 19:43 46.49454 -24.27859 39954 ft 481 kts 285°
2026-05-07 19:43 46.51039 -24.37300 39955 ft 480 kts 285°
2026-05-07 19:44 46.52615 -24.46731 39955 ft 480 kts 285°
2026-05-07 19:44 46.54182 -24.56166 39952 ft 480 kts 285°
2026-05-07 19:45 46.55732 -24.65543 39952 ft 480 kts 285°
2026-05-07 19:45 46.57283 -24.74987 39953 ft 479 kts 285°
2026-05-07 19:46 46.58824 -24.84427 39953 ft 479 kts 284°
2026-05-07 19:46 46.60359 -24.93875 39954 ft 479 kts 285°
2026-05-07 19:47 46.61883 -25.03310 39955 ft 479 kts 284°
2026-05-07 19:47 46.63388 -25.12680 39954 ft 479 kts 284°
2026-05-07 19:48 46.64899 -25.22138 39952 ft 479 kts 284°
2026-05-07 19:48 46.66403 -25.31612 39942 ft 479 kts 284°
2026-05-07 19:49 46.67888 -25.41033 39935 ft 479 kts 284°
2026-05-07 19:49 46.69354 -25.50505 39925 ft 479 kts 284°
2026-05-07 19:50 46.70812 -25.59969 39926 ft 479 kts 284°
2026-05-07 19:50 46.72258 -25.69394 39925 ft 479 kts 284°
2026-05-07 19:51 46.73706 -25.78882 39924 ft 479 kts 284°
2026-05-07 19:51 46.75144 -25.88373 39926 ft 479 kts 284°
2026-05-07 19:52 46.76577 -25.97869 39925 ft 479 kts 284°
2026-05-07 19:52 46.78002 -26.07367 39925 ft 479 kts 284°
2026-05-07 19:53 46.79411 -26.16819 39924 ft 479 kts 284°
2026-05-07 19:53 46.80821 -26.26340 39925 ft 479 kts 284°
2026-05-07 19:54 46.82220 -26.35845 39933 ft 478 kts 284°
2026-05-07 19:54 46.83613 -26.45367 39943 ft 478 kts 284°
2026-05-07 19:55 46.84994 -26.54867 39951 ft 478 kts 284°
2026-05-07 19:55 46.86360 -26.64321 39949 ft 478 kts 284°
2026-05-07 19:56 46.87725 -26.73825 39954 ft 479 kts 284°
2026-05-07 19:56 46.89084 -26.83336 39949 ft 478 kts 284°
2026-05-07 19:57 46.90436 -26.92851 39949 ft 477 kts 284°
2026-05-07 19:57 46.91766 -27.02314 39955 ft 477 kts 284°
2026-05-07 19:58 46.93099 -27.11840 39955 ft 479 kts 284°
2026-05-07 19:58 46.94427 -27.21384 39959 ft 478 kts 284°
2026-05-07 19:59 46.95746 -27.30922 39963 ft 478 kts 284°
2026-05-07 19:59 46.97055 -27.40457 39974 ft 478 kts 284°
2026-05-07 20:00 46.98357 -27.50004 39982 ft 478 kts 284°
2026-05-07 20:00 46.99649 -27.59570 39997 ft 478 kts 284°
2026-05-07 20:01 47.00936 -27.69136 40003 ft 477 kts 284°
2026-05-07 20:01 47.02219 -27.78680 40012 ft 477 kts 284°
2026-05-07 20:02 47.03486 -27.88233 40021 ft 477 kts 284°
2026-05-07 20:02 47.04746 -27.97799 40027 ft 478 kts 284°
2026-05-07 20:03 47.05995 -28.07315 40028 ft 479 kts 284°
2026-05-07 20:03 47.07237 -28.16866 40025 ft 476 kts 284°
2026-05-07 20:04 47.08475 -28.26428 40028 ft 477 kts 284°
2026-05-07 20:04 47.09690 -28.35935 40031 ft 476 kts 284°
2026-05-07 20:05 47.10901 -28.45498 40027 ft 475 kts 284°
2026-05-07 20:05 47.12111 -28.55029 40028 ft 475 kts 284°
2026-05-07 20:06 47.13317 -28.64586 40028 ft 475 kts 284°
2026-05-07 20:06 47.14502 -28.74083 40027 ft 475 kts 284°
2026-05-07 20:07 47.15684 -28.83614 40028 ft 474 kts 284°
2026-05-07 20:07 47.16856 -28.93156 40023 ft 474 kts 284°
2026-05-07 20:08 47.18015 -29.02704 40025 ft 474 kts 284°
2026-05-07 20:08 47.19160 -29.12254 40025 ft 473 kts 284°
2026-05-07 20:09 47.20295 -29.21781 40025 ft 472 kts 284°
2026-05-07 20:10 47.21977 -29.35971 40027 ft 472 kts 284°
2026-05-07 20:10 47.23091 -29.45467 40034 ft 471 kts 284°
2026-05-07 20:11 47.24196 -29.54987 40036 ft 470 kts 284°
2026-05-07 20:11 47.25291 -29.64474 40050 ft 469 kts 284°
2026-05-07 20:12 47.26381 -29.73953 40049 ft 469 kts 284°
2026-05-07 20:12 47.27455 -29.83400 40055 ft 469 kts 284°
2026-05-07 20:13 47.28526 -29.92891 40051 ft 469 kts 283°
2026-05-07 20:13 47.29585 -30.02358 40060 ft 468 kts 283°
2026-05-07 20:14 47.30634 -30.11815 40051 ft 467 kts 284°
2026-05-07 20:14 47.31668 -30.21185 40051 ft 465 kts 284°
2026-05-07 20:15 47.32701 -30.30604 40052 ft 465 kts 284°
2026-05-07 20:15 47.33724 -30.40048 40046 ft 466 kts 283°
2026-05-07 20:16 47.34740 -30.49479 40051 ft 465 kts 283°
2026-05-07 20:16 47.35750 -30.58911 40060 ft 466 kts 283°
2026-05-07 20:17 47.36750 -30.68357 40047 ft 465 kts 283°
2026-05-07 20:17 47.37740 -30.77817 40054 ft 465 kts 283°
2026-05-07 20:18 47.38717 -30.87198 40052 ft 465 kts 283°
2026-05-07 20:18 47.39697 -30.96646 40056 ft 465 kts 283°
2026-05-07 20:19 47.40667 -31.06102 40061 ft 466 kts 283°
2026-05-07 20:19 47.41631 -31.15562 40046 ft 465 kts 283°
2026-05-07 20:20 47.42574 -31.24950 40068 ft 465 kts 283°
2026-05-07 20:20 47.43518 -31.34402 40077 ft 465 kts 283°
2026-05-07 20:21 47.44454 -31.43862 40081 ft 464 kts 283°
2026-05-07 20:21 47.45382 -31.53322 40089 ft 465 kts 283°
2026-05-07 20:22 47.46304 -31.62777 40099 ft 464 kts 283°
2026-05-07 20:22 47.47061 -31.70623 40105 ft 464 kts 283°
2026-05-07 20:23 47.47966 -31.80064 40111 ft 463 kts 283°
2026-05-07 20:23 47.48862 -31.89505 40109 ft 463 kts 283°
2026-05-07 20:24 47.49752 -31.98932 40109 ft 462 kts 283°
2026-05-07 20:24 47.50625 -32.08305 40104 ft 462 kts 283°
2026-05-07 20:25 47.51494 -32.17724 40094 ft 462 kts 283°
2026-05-07 20:25 47.52359 -32.27179 40085 ft 462 kts 283°
2026-05-07 20:26 47.53209 -32.36545 40077 ft 462 kts 283°
2026-05-07 20:26 47.54056 -32.45972 40075 ft 462 kts 283°
2026-05-07 20:27 47.54895 -32.55400 40071 ft 462 kts 283°
2026-05-07 20:27 47.55750 -32.64834 40060 ft 462 kts 283°
2026-05-07 20:28 47.56625 -32.74277 40073 ft 462 kts 283°
2026-05-07 20:28 47.57490 -32.83703 40076 ft 462 kts 283°
2026-05-07 20:29 47.58339 -32.93074 40077 ft 462 kts 283°
2026-05-07 20:29 47.59184 -33.02523 40080 ft 462 kts 283°
2026-05-07 20:30 47.60020 -33.11968 40082 ft 462 kts 283°
2026-05-07 20:30 47.60847 -33.21406 40082 ft 462 kts 283°
2026-05-07 20:31 47.61668 -33.30849 40081 ft 462 kts 283°
2026-05-07 20:31 47.62481 -33.40299 40082 ft 462 kts 283°
2026-05-07 20:32 47.63280 -33.49682 40082 ft 461 kts 283°
2026-05-07 20:32 47.64076 -33.59117 40082 ft 461 kts 283°
2026-05-07 20:33 47.64864 -33.68553 40082 ft 461 kts 283°
2026-05-07 20:33 47.65644 -33.77992 40081 ft 461 kts 283°
2026-05-07 20:34 47.66416 -33.87427 40082 ft 461 kts 283°
2026-05-07 20:34 47.67180 -33.96862 40082 ft 460 kts 283°
2026-05-07 20:35 47.67932 -34.06257 40081 ft 460 kts 283°
2026-05-07 20:35 47.68680 -34.15690 40081 ft 460 kts 283°
2026-05-07 20:36 47.69421 -34.25124 40083 ft 461 kts 283°
2026-05-07 20:36 47.70155 -34.34582 40082 ft 461 kts 282°
2026-05-07 20:37 47.70881 -34.44047 40082 ft 461 kts 282°
2026-05-07 20:37 47.71595 -34.53453 40082 ft 461 kts 282°
2026-05-07 20:38 47.72307 -34.62942 40082 ft 462 kts 282°
2026-05-07 20:38 47.73012 -34.72431 40082 ft 462 kts 282°
2026-05-07 20:39 47.73709 -34.81936 40082 ft 462 kts 282°
2026-05-07 20:39 47.74400 -34.91455 40083 ft 463 kts 282°
2026-05-07 20:40 47.75079 -35.00920 40082 ft 463 kts 282°
2026-05-07 20:40 47.75753 -35.10445 40082 ft 464 kts 282°
2026-05-07 20:41 47.76421 -35.19987 40082 ft 464 kts 282°
2026-05-07 20:41 47.77077 -35.29475 40082 ft 464 kts 282°
2026-05-07 20:42 47.77730 -35.39026 40081 ft 464 kts 282°
2026-05-07 20:42 47.78374 -35.48571 40077 ft 464 kts 282°
2026-05-07 20:43 47.79011 -35.58126 40071 ft 464 kts 282°
2026-05-07 20:43 47.79639 -35.67685 40059 ft 464 kts 282°
2026-05-07 20:44 47.80256 -35.77187 40076 ft 464 kts 282°
2026-05-07 20:44 47.80869 -35.86747 40076 ft 464 kts 282°
2026-05-07 20:45 47.81475 -35.96336 40077 ft 464 kts 282°
2026-05-07 20:45 47.82072 -36.05895 40077 ft 464 kts 282°
2026-05-07 20:46 47.82658 -36.15413 40076 ft 464 kts 281°
2026-05-07 20:46 47.83239 -36.24976 40076 ft 464 kts 281°
2026-05-07 20:47 47.83801 -36.34559 40072 ft 465 kts 281°
2026-05-07 20:47 47.84326 -36.44146 40066 ft 465 kts 281°
2026-05-07 20:48 47.84845 -36.53761 40077 ft 466 kts 281°
2026-05-07 20:48 47.85359 -36.63369 40076 ft 465 kts 281°
2026-05-07 20:49 47.85868 -36.72978 40076 ft 465 kts 280°
2026-05-07 20:49 47.86367 -36.82538 40069 ft 466 kts 280°
2026-05-07 20:50 47.86862 -36.92175 40075 ft 467 kts 280°
2026-05-07 20:50 47.87350 -37.01836 40060 ft 467 kts 280°
2026-05-07 20:51 47.87827 -37.11452 40067 ft 467 kts 280°
2026-05-07 20:51 47.88297 -37.21102 40057 ft 467 kts 280°
2026-05-07 20:52 47.88760 -37.30762 40042 ft 467 kts 279°
2026-05-07 20:52 47.89215 -37.40429 40038 ft 467 kts 279°
2026-05-07 20:53 47.89662 -37.50094 40031 ft 468 kts 279°
2026-05-07 20:53 47.90099 -37.59712 40036 ft 468 kts 279°
2026-05-07 20:54 47.90530 -37.69395 40038 ft 468 kts 279°
2026-05-07 20:54 47.90953 -37.79081 40036 ft 468 kts 279°
2026-05-07 20:55 47.91365 -37.88698 40038 ft 468 kts 279°
2026-05-07 20:55 47.91771 -37.98373 40038 ft 468 kts 279°
2026-05-07 20:56 47.92170 -38.08073 40035 ft 468 kts 279°
2026-05-07 20:56 47.92561 -38.17758 40038 ft 468 kts 279°
2026-05-07 20:57 47.92941 -38.27400 40037 ft 468 kts 279°
2026-05-07 20:57 47.93316 -38.37104 40034 ft 468 kts 278°
2026-05-07 20:58 47.93683 -38.46818 40036 ft 468 kts 278°
2026-05-07 20:58 47.94041 -38.56513 40038 ft 469 kts 278°
2026-05-07 20:59 47.94390 -38.66179 40038 ft 469 kts 278°
2026-05-07 20:59 47.94732 -38.75896 40033 ft 469 kts 278°
2026-05-07 21:00 47.95066 -38.85611 40037 ft 469 kts 278°
2026-05-07 21:00 47.95392 -38.95325 40031 ft 469 kts 277°
2026-05-07 21:01 47.95709 -39.05049 40038 ft 469 kts 277°
2026-05-07 21:01 47.96018 -39.14758 40038 ft 469 kts 277°
2026-05-07 21:02 47.96319 -39.24471 40037 ft 469 kts 277°
2026-05-07 21:02 47.96611 -39.34124 40034 ft 469 kts 277°
2026-05-07 21:03 47.96895 -39.43842 40037 ft 467 kts 276°
2026-05-07 21:03 47.97169 -39.53508 40038 ft 466 kts 276°
2026-05-07 21:04 47.97437 -39.63189 40035 ft 466 kts 276°
2026-05-07 21:04 47.97695 -39.72807 40031 ft 466 kts 276°
2026-05-07 21:05 47.97946 -39.82472 40038 ft 466 kts 276°
2026-05-07 21:05 47.98189 -39.92156 40037 ft 466 kts 276°
2026-05-07 21:06 47.98425 -40.01822 40038 ft 466 kts 276°
2026-05-07 21:06 47.98659 -40.11429 40033 ft 466 kts 276°
2026-05-07 21:07 47.98888 -40.21084 40034 ft 466 kts 276°
2026-05-07 21:07 47.99109 -40.30761 40038 ft 466 kts 276°
2026-05-07 21:08 47.99321 -40.40436 40030 ft 466 kts 275°
2026-05-07 21:08 47.99525 -40.50115 40036 ft 466 kts 275°
2026-05-07 21:09 47.99721 -40.59802 40033 ft 467 kts 275°
2026-05-07 21:09 47.99908 -40.69441 40037 ft 467 kts 275°
2026-05-07 21:10 48.00088 -40.79141 40032 ft 466 kts 275°
2026-05-07 21:10 48.00258 -40.88834 40037 ft 465 kts 275°
2026-05-07 21:11 48.00420 -40.98419 40037 ft 464 kts 275°
2026-05-07 21:11 48.00649 -41.12875 40035 ft 464 kts 274°
2026-05-07 21:12 48.00792 -41.22522 40030 ft 464 kts 274°
2026-05-07 21:12 48.00904 -41.30537 40022 ft 465 kts 274°
2026-05-07 21:13 48.01052 -41.41787 40017 ft 465 kts 274°
2026-05-07 21:13 48.01151 -41.49819 40017 ft 465 kts 274°
2026-05-07 21:14 48.01263 -41.59481 40018 ft 465 kts 274°
2026-05-07 21:14 48.01367 -41.69162 40017 ft 466 kts 274°
2026-05-07 21:15 48.01462 -41.78854 40018 ft 466 kts 273°
2026-05-07 21:15 48.01549 -41.88472 40017 ft 466 kts 273°
2026-05-07 21:16 48.01629 -41.98160 40018 ft 466 kts 273°
2026-05-07 21:16 48.01700 -42.07856 40018 ft 467 kts 273°
2026-05-07 21:17 48.01763 -42.17559 40017 ft 467 kts 273°
2026-05-07 21:17 48.01818 -42.27250 40018 ft 467 kts 273°
2026-05-07 21:18 48.01865 -42.36941 40021 ft 466 kts 273°
2026-05-07 21:18 48.01904 -42.46636 40029 ft 466 kts 273°
2026-05-07 21:19 48.01934 -42.56309 40040 ft 466 kts 272°
2026-05-07 21:19 48.01957 -42.65995 40051 ft 465 kts 272°
2026-05-07 21:20 48.01971 -42.75609 40054 ft 465 kts 272°
2026-05-07 21:20 48.01977 -42.85291 40057 ft 465 kts 272°
2026-05-07 21:21 48.01975 -42.94965 40056 ft 465 kts 272°
2026-05-07 21:21 48.01965 -43.04594 40053 ft 465 kts 272°
2026-05-07 21:22 48.01947 -43.14261 40047 ft 465 kts 272°
2026-05-07 21:22 48.01921 -43.23940 40045 ft 466 kts 272°
2026-05-07 21:23 48.01886 -43.33612 40035 ft 466 kts 271°
2026-05-07 21:23 48.01844 -43.43293 40025 ft 466 kts 271°
2026-05-07 21:24 48.01794 -43.52931 40015 ft 466 kts 271°
2026-05-07 21:24 48.01735 -43.62614 40008 ft 466 kts 271°
2026-05-07 21:25 48.01668 -43.72310 40008 ft 467 kts 271°
2026-05-07 21:25 48.01602 -43.82021 40008 ft 467 kts 271°
2026-05-07 21:26 48.01531 -43.91726 40008 ft 467 kts 271°
2026-05-07 21:26 48.01452 -44.01434 40008 ft 467 kts 271°
2026-05-07 21:27 48.01365 -44.11087 40007 ft 467 kts 271°
2026-05-07 21:27 48.01268 -44.20789 39999 ft 467 kts 271°
2026-05-07 21:28 48.01163 -44.30508 40003 ft 467 kts 271°
2026-05-07 21:28 48.01050 -44.40226 39998 ft 467 kts 271°
2026-05-07 21:29 48.00929 -44.49912 39998 ft 466 kts 271°
2026-05-07 21:29 48.00800 -44.59610 39998 ft 466 kts 271°
2026-05-07 21:30 48.00664 -44.69212 39998 ft 465 kts 270°
2026-05-07 21:30 48.00520 -44.78864 39998 ft 464 kts 270°
2026-05-07 21:31 48.00367 -44.88513 39998 ft 464 kts 270°
2026-05-07 21:31 48.00207 -44.98129 39998 ft 463 kts 270°
2026-05-07 21:32 48.00039 -45.07733 39998 ft 462 kts 270°
2026-05-07 21:32 47.99862 -45.17345 39998 ft 462 kts 270°
2026-05-07 21:33 47.99680 -45.26886 39998 ft 463 kts 270°
2026-05-07 21:33 47.99488 -45.36505 39998 ft 463 kts 270°
2026-05-07 21:34 47.99288 -45.46101 39999 ft 462 kts 270°
2026-05-07 21:34 47.99079 -45.55707 40007 ft 462 kts 270°
2026-05-07 21:35 47.98863 -45.65310 40008 ft 462 kts 270°
2026-05-07 21:35 47.98639 -45.74905 40008 ft 462 kts 270°
2026-05-07 21:36 47.98407 -45.84512 40008 ft 462 kts 270°
2026-05-07 21:36 47.98169 -45.94038 40008 ft 462 kts 270°
2026-05-07 21:37 47.97921 -46.03619 40008 ft 462 kts 270°
2026-05-07 21:37 47.97665 -46.13240 40007 ft 462 kts 269°
2026-05-07 21:38 47.97401 -46.22836 40008 ft 462 kts 269°
2026-05-07 21:38 47.97129 -46.32418 40008 ft 462 kts 269°
2026-05-07 21:39 47.96851 -46.41946 40008 ft 462 kts 269°
2026-05-07 21:39 47.96563 -46.51528 40008 ft 461 kts 269°
2026-05-07 21:40 47.96269 -46.61081 40008 ft 460 kts 269°
2026-05-07 21:40 47.95969 -46.70557 40008 ft 459 kts 269°
2026-05-07 21:41 47.95659 -46.80065 40008 ft 458 kts 269°
2026-05-07 21:41 47.95343 -46.89553 40008 ft 457 kts 269°
2026-05-07 21:42 47.95020 -46.99017 40008 ft 456 kts 268°
2026-05-07 21:42 47.94692 -47.08381 40008 ft 454 kts 268°
2026-05-07 21:43 47.94356 -47.17783 40008 ft 453 kts 268°
2026-05-07 21:43 47.94012 -47.27165 40008 ft 451 kts 268°
2026-05-07 21:44 47.93663 -47.36506 40001 ft 450 kts 268°
2026-05-07 21:44 47.93307 -47.45815 40000 ft 449 kts 268°
2026-05-07 21:45 47.92950 -47.55117 39998 ft 449 kts 268°
2026-05-07 21:45 47.92590 -47.64339 39998 ft 448 kts 268°
2026-05-07 21:46 47.92220 -47.73621 39998 ft 447 kts 267°
2026-05-07 21:46 47.91843 -47.82876 40000 ft 447 kts 267°
2026-05-07 21:47 47.91459 -47.92124 40000 ft 446 kts 267°
2026-05-07 21:47 47.91071 -48.01280 40000 ft 446 kts 267°
2026-05-07 21:48 47.90673 -48.10511 40000 ft 446 kts 267°
2026-05-07 21:48 47.90268 -48.19739 39998 ft 446 kts 267°
2026-05-07 21:49 47.89855 -48.28962 39998 ft 446 kts 267°
2026-05-07 21:49 47.89433 -48.38203 40000 ft 447 kts 267°
2026-05-07 21:50 47.89008 -48.47375 39998 ft 447 kts 267°
2026-05-07 21:50 47.88572 -48.56622 39998 ft 447 kts 266°
2026-05-07 21:51 47.88128 -48.65871 39998 ft 447 kts 266°
2026-05-07 21:51 47.87676 -48.75133 39998 ft 447 kts 266°
2026-05-07 21:52 47.87220 -48.84327 39992 ft 448 kts 266°
2026-05-07 21:52 47.86752 -48.93602 39995 ft 448 kts 266°
2026-05-07 21:53 47.86278 -49.02871 39993 ft 448 kts 266°
2026-05-07 21:53 47.85796 -49.12086 39988 ft 448 kts 265°
2026-05-07 21:54 47.85306 -49.21368 39993 ft 449 kts 265°
2026-05-07 21:54 47.84812 -49.30572 39991 ft 449 kts 265°
2026-05-07 21:55 47.84307 -49.39839 39991 ft 449 kts 265°
2026-05-07 21:55 47.83794 -49.49118 39989 ft 450 kts 265°
2026-05-07 21:56 47.83273 -49.58407 39988 ft 450 kts 264°
2026-05-07 21:56 47.82746 -49.67679 39988 ft 449 kts 264°
2026-05-07 21:57 47.82210 -49.76951 39988 ft 449 kts 264°
2026-05-07 21:57 47.81667 -49.86214 39989 ft 449 kts 264°
2026-05-07 21:58 47.81120 -49.95419 39988 ft 449 kts 264°
2026-05-07 21:58 47.80562 -50.04693 39995 ft 449 kts 264°
2026-05-07 21:59 47.79997 -50.13954 40000 ft 449 kts 264°
2026-05-07 21:59 47.79424 -50.23213 39998 ft 450 kts 264°
2026-05-07 22:00 47.78942 -50.30914 39998 ft 450 kts 264°
2026-05-07 22:00 47.78352 -50.40231 40000 ft 449 kts 264°
2026-05-07 22:01 47.77761 -50.49436 39999 ft 449 kts 263°
2026-05-07 22:01 47.77159 -50.58699 39998 ft 449 kts 263°
2026-05-07 22:02 47.76554 -50.67893 39998 ft 449 kts 263°
2026-05-07 22:02 47.75938 -50.77142 39998 ft 449 kts 263°
2026-05-07 22:03 47.75315 -50.86385 39998 ft 449 kts 263°
2026-05-07 22:03 47.74688 -50.95570 39998 ft 449 kts 263°
2026-05-07 22:04 47.74051 -51.04802 39998 ft 449 kts 262°
2026-05-07 22:04 47.73406 -51.14026 40000 ft 448 kts 262°
2026-05-07 22:05 47.72752 -51.23257 40001 ft 449 kts 262°
2026-05-07 22:05 47.72092 -51.32414 40000 ft 448 kts 262°
2026-05-07 22:06 47.71420 -51.41620 39998 ft 448 kts 261°
2026-05-07 22:06 47.70742 -51.50817 40001 ft 448 kts 261°
2026-05-07 22:07 47.70057 -51.60016 40008 ft 448 kts 261°
2026-05-07 22:07 47.69365 -51.69213 40008 ft 448 kts 261°
2026-05-07 22:08 47.68665 -51.78416 40008 ft 448 kts 261°
2026-05-07 22:08 47.67964 -51.87530 40008 ft 447 kts 260°
2026-05-07 22:09 47.67250 -51.96715 40008 ft 448 kts 260°
2026-05-07 22:09 47.66528 -52.05900 40008 ft 448 kts 260°
2026-05-07 22:10 47.65800 -52.15074 40008 ft 447 kts 260°
2026-05-07 22:10 47.65065 -52.24250 40016 ft 447 kts 260°
2026-05-07 22:11 47.64446 -52.33398 40018 ft 448 kts 262°
2026-05-07 22:11 47.63989 -52.42607 40018 ft 448 kts 263°
2026-05-07 22:12 47.63516 -52.51818 40014 ft 447 kts 262°
2026-05-07 22:12 47.62901 -52.61016 40008 ft 446 kts 262°
2026-05-07 22:13 47.62273 -52.70109 40008 ft 446 kts 262°
2026-05-07 22:13 47.61643 -52.79259 40009 ft 446 kts 262°
2026-05-07 22:14 47.61008 -52.88404 40010 ft 445 kts 262°
2026-05-07 22:14 47.60366 -52.97542 40019 ft 445 kts 262°
2026-05-07 22:15 47.59718 -53.06677 40027 ft 445 kts 262°
2026-05-07 22:15 47.59063 -53.15798 40028 ft 445 kts 262°
2026-05-07 22:16 47.58406 -53.24852 40027 ft 444 kts 262°
2026-05-07 22:16 47.57738 -53.33949 40027 ft 444 kts 262°
2026-05-07 22:17 47.57061 -53.43069 40028 ft 445 kts 262°
2026-05-07 22:17 47.56379 -53.52169 40022 ft 445 kts 262°
2026-05-07 22:18 47.55343 -53.65772 40017 ft 445 kts 262°
2026-05-07 22:19 47.54645 -53.74868 40015 ft 444 kts 262°
2026-05-07 22:19 47.53939 -53.83938 40010 ft 444 kts 262°
2026-05-07 22:20 47.53224 -53.93024 40009 ft 444 kts 262°
2026-05-07 22:20 47.52501 -54.02131 40001 ft 444 kts 261°
2026-05-07 22:21 47.51776 -54.11137 39995 ft 442 kts 262°
2026-05-07 22:21 47.51046 -54.20155 39992 ft 440 kts 262°
2026-05-07 22:22 47.50310 -54.29168 39977 ft 440 kts 261°
2026-05-07 22:22 47.49502 -54.38047 39966 ft 425 kts 260°
2026-05-07 22:23 47.48593 -54.46591 39965 ft 417 kts 259°
2026-05-07 22:23 47.47689 -54.55055 39960 ft 419 kts 260°
2026-05-07 22:24 47.46802 -54.63610 39954 ft 428 kts 260°
2026-05-07 22:24 47.45882 -54.72385 39945 ft 435 kts 260°
2026-05-07 22:25 47.44947 -54.81204 39935 ft 433 kts 260°
2026-05-07 22:25 47.44015 -54.89933 39926 ft 431 kts 260°
2026-05-07 22:26 47.43075 -54.98670 39918 ft 430 kts 260°
2026-05-07 22:26 47.42130 -55.07383 39908 ft 429 kts 260°
2026-05-07 22:27 47.41182 -55.16063 39899 ft 427 kts 260°
2026-05-07 22:27 47.40232 -55.24693 39890 ft 425 kts 260°
2026-05-07 22:28 47.39278 -55.33301 39881 ft 424 kts 260°
2026-05-07 22:28 47.38320 -55.41881 39872 ft 423 kts 260°
2026-05-07 22:29 47.37363 -55.50390 39874 ft 422 kts 260°
2026-05-07 22:29 47.36396 -55.58937 39878 ft 422 kts 260°
2026-05-07 22:30 47.35422 -55.67485 39879 ft 422 kts 259°
2026-05-07 22:30 47.34442 -55.76021 39879 ft 421 kts 259°
2026-05-07 22:31 47.33463 -55.84490 39879 ft 421 kts 259°
2026-05-07 22:31 47.32474 -55.92993 39879 ft 420 kts 259°
2026-05-07 22:32 47.31479 -56.01482 39878 ft 420 kts 259°
2026-05-07 22:32 47.30485 -56.09924 39874 ft 410 kts 259°
2026-05-07 22:32 47.30001 -56.14011 39872 ft 398 kts 259°
2026-05-07 22:33 47.29528 -56.17993 39877 ft 393 kts 259°
2026-05-07 22:33 47.28585 -56.25886 39874 ft 391 kts 259°
2026-05-07 22:34 47.27639 -56.33762 39869 ft 390 kts 259°
2026-05-07 22:34 47.26693 -56.41586 39869 ft 389 kts 259°
2026-05-07 22:35 47.25739 -56.49432 39869 ft 389 kts 259°
2026-05-07 22:35 47.24780 -56.57274 39868 ft 389 kts 259°
2026-05-07 22:36 47.23824 -56.65050 39869 ft 388 kts 259°
2026-05-07 22:36 47.22858 -56.72852 39869 ft 387 kts 259°
2026-05-07 22:37 47.21889 -56.80639 39868 ft 386 kts 259°
2026-05-07 22:37 47.20917 -56.88401 39869 ft 385 kts 259°
2026-05-07 22:38 47.19950 -56.96082 39863 ft 384 kts 259°
2026-05-07 22:38 47.18973 -57.03803 39861 ft 383 kts 259°
2026-05-07 22:39 47.17995 -57.11485 39860 ft 382 kts 258°
2026-05-07 22:39 47.17011 -57.19166 39860 ft 382 kts 258°
2026-05-07 22:40 47.16023 -57.26836 39853 ft 381 kts 258°
2026-05-07 22:40 47.15033 -57.34478 39850 ft 380 kts 258°
2026-05-07 22:41 47.14040 -57.42113 39849 ft 380 kts 258°
2026-05-07 22:41 47.13050 -57.49672 39847 ft 379 kts 258°
2026-05-07 22:42 47.12050 -57.57267 39829 ft 378 kts 258°
2026-05-07 22:42 47.11046 -57.64856 39823 ft 378 kts 258°
2026-05-07 22:43 47.10040 -57.72420 39813 ft 377 kts 258°
2026-05-07 22:43 47.09028 -57.79987 39807 ft 377 kts 258°
2026-05-07 22:44 47.08015 -57.87527 39798 ft 376 kts 258°
2026-05-07 22:44 47.06997 -57.95052 39789 ft 376 kts 258°
2026-05-07 22:45 47.05981 -58.02525 39779 ft 375 kts 258°
2026-05-07 22:45 47.04958 -58.10012 39775 ft 373 kts 257°
2026-05-07 22:46 47.03935 -58.17471 39770 ft 372 kts 257°
2026-05-07 22:46 47.03090 -58.23627 39767 ft 370 kts 257°
2026-05-07 22:47 47.02064 -58.31022 39762 ft 370 kts 257°
2026-05-07 22:47 47.00865 -58.39613 39757 ft 370 kts 257°
2026-05-07 22:48 46.99998 -58.45800 39754 ft 369 kts 257°
2026-05-07 22:48 46.98968 -58.53126 39749 ft 370 kts 257°
2026-05-07 22:49 46.97926 -58.60490 39748 ft 369 kts 257°
2026-05-07 22:49 46.96879 -58.67848 39738 ft 368 kts 257°
2026-05-07 22:50 46.95832 -58.75196 39738 ft 369 kts 256°
2026-05-07 22:50 46.94782 -58.82531 39735 ft 367 kts 256°
2026-05-07 22:51 46.93735 -58.89801 39729 ft 367 kts 256°
2026-05-07 22:51 46.92673 -58.97120 39729 ft 367 kts 256°
2026-05-07 22:52 46.91609 -59.04421 39721 ft 367 kts 256°
2026-05-07 22:52 46.90546 -59.11717 39720 ft 366 kts 256°
2026-05-07 22:53 46.89477 -59.18994 39722 ft 367 kts 256°
2026-05-07 22:53 46.88402 -59.26259 39716 ft 365 kts 256°
2026-05-07 22:54 46.87333 -59.33466 39713 ft 365 kts 256°
2026-05-07 22:54 46.86255 -59.40706 39710 ft 364 kts 256°
2026-05-07 22:55 46.85173 -59.47950 39713 ft 364 kts 256°
2026-05-07 22:55 46.84084 -59.55184 39704 ft 364 kts 256°
2026-05-07 22:56 46.82994 -59.62400 39700 ft 364 kts 256°
2026-05-07 22:56 46.81908 -59.69565 39706 ft 363 kts 255°
2026-05-07 22:57 46.80814 -59.76749 39702 ft 362 kts 255°
2026-05-07 22:57 46.79716 -59.83920 39693 ft 361 kts 255°
2026-05-07 22:58 46.78618 -59.91061 39695 ft 361 kts 255°
2026-05-07 22:58 46.77512 -59.98223 39694 ft 362 kts 255°
2026-05-07 22:59 46.76400 -60.05379 39688 ft 361 kts 255°
2026-05-07 22:59 46.75295 -60.12475 39693 ft 361 kts 255°
2026-05-07 23:00 46.74175 -60.19641 39695 ft 361 kts 255°
2026-05-07 23:00 46.73056 -60.26758 39689 ft 361 kts 254°
2026-05-07 23:01 46.71929 -60.33893 39679 ft 362 kts 254°
2026-05-07 23:01 46.70792 -60.41055 39684 ft 362 kts 254°
2026-05-07 23:02 46.69656 -60.48195 39684 ft 362 kts 254°
2026-05-07 23:02 46.68519 -60.55300 39678 ft 362 kts 254°
2026-05-07 23:03 46.67373 -60.62438 39683 ft 362 kts 254°
2026-05-07 23:03 46.66219 -60.69589 39685 ft 363 kts 254°
2026-05-07 23:04 46.65059 -60.76743 39683 ft 363 kts 253°
2026-05-07 23:04 46.63894 -60.83906 39681 ft 364 kts 253°
2026-05-07 23:05 46.62729 -60.91033 39685 ft 364 kts 253°
2026-05-07 23:05 46.61552 -60.98201 39684 ft 364 kts 253°
2026-05-07 23:06 46.60370 -61.05374 39679 ft 365 kts 253°
2026-05-07 23:06 46.59183 -61.12549 39677 ft 365 kts 253°
2026-05-07 23:07 46.57989 -61.19731 39687 ft 365 kts 253°
2026-05-07 23:07 46.56792 -61.26904 39687 ft 365 kts 253°
2026-05-07 23:08 46.55596 -61.34039 39678 ft 365 kts 253°
2026-05-07 23:08 46.54390 -61.41206 39675 ft 365 kts 252°
2026-05-07 23:09 46.53179 -61.48376 39675 ft 365 kts 252°
2026-05-07 23:09 46.51964 -61.55533 39672 ft 365 kts 252°
2026-05-07 23:10 46.50757 -61.62624 39370 ft 360 kts 252°
2026-05-07 23:10 46.50154 -61.66153 38731 ft 361 kts 252°
2026-05-07 23:10 46.49550 -61.69680 38215 ft 358 kts 252°
2026-05-07 23:10 46.48950 -61.73176 37784 ft 356 kts 252°
2026-05-07 23:11 46.48350 -61.76664 37366 ft 355 kts 252°
2026-05-07 23:11 46.47752 -61.80136 36931 ft 354 kts 252°
2026-05-07 23:11 46.47154 -61.83597 36500 ft 353 kts 252°
2026-05-07 23:11 46.46556 -61.87051 36069 ft 353 kts 252°
2026-05-07 23:12 46.45957 -61.90507 35616 ft 353 kts 252°
2026-05-07 23:12 46.45357 -61.93961 35170 ft 354 kts 252°
2026-05-07 23:12 46.44754 -61.97427 34705 ft 355 kts 251°
2026-05-07 23:12 46.44148 -62.00902 34242 ft 356 kts 251°
2026-05-07 23:13 46.43539 -62.04385 33722 ft 357 kts 251°
2026-05-07 23:13 46.42937 -62.07828 33207 ft 358 kts 251°
2026-05-07 23:13 46.42321 -62.11338 32835 ft 361 kts 251°
2026-05-07 23:13 46.41698 -62.14877 32466 ft 364 kts 251°
2026-05-07 23:14 46.41067 -62.18461 32087 ft 367 kts 251°
2026-05-07 23:14 46.40439 -62.22032 31700 ft 363 kts 251°
2026-05-07 23:14 46.39821 -62.25544 31323 ft 356 kts 251°
2026-05-07 23:14 46.39213 -62.28989 30954 ft 349 kts 251°
2026-05-07 23:15 46.38616 -62.32362 30588 ft 343 kts 251°
2026-05-07 23:15 46.38023 -62.35704 30235 ft 342 kts 251°
2026-05-07 23:15 46.37424 -62.39048 29882 ft 342 kts 250°
2026-05-07 23:15 46.36826 -62.42384 29526 ft 342 kts 250°
2026-05-07 23:16 46.36230 -62.45722 29170 ft 342 kts 250°
2026-05-07 23:16 46.35640 -62.49014 28821 ft 342 kts 250°
2026-05-07 23:16 46.35041 -62.52350 28467 ft 342 kts 250°
2026-05-07 23:16 46.34442 -62.55683 28113 ft 342 kts 250°
2026-05-07 23:17 46.33840 -62.59023 27755 ft 342 kts 250°
2026-05-07 23:17 46.33238 -62.62361 27400 ft 342 kts 249°
2026-05-07 23:17 46.32633 -62.65707 27039 ft 342 kts 249°
2026-05-07 23:17 46.32031 -62.69036 26680 ft 342 kts 249°
2026-05-07 23:18 46.31427 -62.72365 26316 ft 342 kts 249°
2026-05-07 23:18 46.30833 -62.75639 25966 ft 341 kts 249°
2026-05-07 23:18 46.30230 -62.78950 25604 ft 340 kts 249°
2026-05-07 23:18 46.29626 -62.82263 25245 ft 340 kts 249°
2026-05-07 23:19 46.29022 -62.85568 24878 ft 339 kts 248°
2026-05-07 23:19 46.28418 -62.88863 24520 ft 339 kts 248°
2026-05-07 23:19 46.27815 -62.92159 24149 ft 338 kts 248°
2026-05-07 23:19 46.27210 -62.95448 23777 ft 338 kts 248°
2026-05-07 23:20 46.26605 -62.98738 23410 ft 337 kts 248°
2026-05-07 23:20 46.26003 -63.02006 23049 ft 335 kts 248°
2026-05-07 23:20 46.25407 -63.05237 22670 ft 332 kts 248°
2026-05-07 23:20 46.24815 -63.08442 22304 ft 328 kts 248°
2026-05-07 23:21 46.24227 -63.11617 21937 ft 326 kts 248°
2026-05-07 23:21 46.23652 -63.14717 21576 ft 322 kts 248°
2026-05-07 23:21 46.23075 -63.17825 21214 ft 319 kts 248°
2026-05-07 23:21 46.22500 -63.20909 20852 ft 316 kts 248°
2026-05-07 23:22 46.21929 -63.23968 20490 ft 313 kts 248°
2026-05-07 23:22 46.21364 -63.26996 20131 ft 310 kts 248°
2026-05-07 23:22 46.20804 -63.29986 19778 ft 307 kts 248°
2026-05-07 23:22 46.20252 -63.32941 19425 ft 303 kts 248°
2026-05-07 23:23 46.19703 -63.35860 19070 ft 300 kts 248°
2026-05-07 23:23 46.19165 -63.38717 18735 ft 297 kts 248°
2026-05-07 23:23 46.18626 -63.41581 18390 ft 294 kts 248°
2026-05-07 23:23 46.18091 -63.44415 18048 ft 291 kts 248°
2026-05-07 23:24 46.17562 -63.47219 17710 ft 288 kts 248°
2026-05-07 23:24 46.17037 -63.49992 17376 ft 286 kts 248°
2026-05-07 23:24 46.16513 -63.52753 17043 ft 285 kts 248°
2026-05-07 23:24 46.15988 -63.55514 16704 ft 285 kts 248°
2026-05-07 23:25 46.15466 -63.58263 16372 ft 283 kts 249°
2026-05-07 23:25 46.14945 -63.61002 16037 ft 282 kts 249°
2026-05-07 23:25 46.14430 -63.63703 15711 ft 283 kts 249°
2026-05-07 23:25 46.13901 -63.66460 15488 ft 291 kts 249°
2026-05-07 23:26 46.13367 -63.69258 15289 ft 285 kts 249°
2026-05-07 23:26 46.12848 -63.71996 14997 ft 282 kts 249°
2026-05-07 23:26 46.12328 -63.74711 14665 ft 281 kts 250°
2026-05-07 23:26 46.11807 -63.77423 14326 ft 280 kts 250°
2026-05-07 23:27 46.10760 -63.82847 13650 ft 280 kts 250°
2026-05-07 23:27 46.10246 -63.85514 13321 ft 280 kts 250°
2026-05-07 23:27 46.09724 -63.88216 12976 ft 280 kts 250°
2026-05-07 23:28 46.09202 -63.90920 12636 ft 280 kts 250°
2026-05-07 23:28 46.08677 -63.93632 12291 ft 279 kts 251°
2026-05-07 23:28 46.08154 -63.96330 11946 ft 279 kts 251°
2026-05-07 23:28 46.07631 -63.99023 11601 ft 280 kts 251°
2026-05-07 23:29 46.07106 -64.01721 11255 ft 280 kts 251°
2026-05-07 23:29 46.06579 -64.04427 10904 ft 281 kts 251°
2026-05-07 23:29 46.06048 -64.07144 10563 ft 282 kts 251°
2026-05-07 23:29 46.05525 -64.09824 10379 ft 272 kts 251°
2026-05-07 23:30 46.05035 -64.12353 10244 ft 258 kts 251°
2026-05-07 23:30 46.04562 -64.14786 10108 ft 246 kts 251°
2026-05-07 23:30 46.04106 -64.17118 9977 ft 238 kts 251°
2026-05-07 23:30 46.03638 -64.19483 9906 ft 253 kts 251°
2026-05-07 23:31 46.03147 -64.21962 9827 ft 259 kts 251°
2026-05-07 23:31 46.02656 -64.24463 9579 ft 259 kts 252°
2026-05-07 23:31 46.02164 -64.26958 9198 ft 259 kts 252°
2026-05-07 23:31 46.01674 -64.29461 8900 ft 261 kts 252°
2026-05-07 23:32 46.01183 -64.31951 8629 ft 262 kts 252°
2026-05-07 23:32 46.00684 -64.34468 8357 ft 261 kts 252°
2026-05-07 23:32 46.00187 -64.36979 8084 ft 261 kts 252°
2026-05-07 23:32 45.99691 -64.39480 7811 ft 259 kts 252°
2026-05-07 23:33 45.99197 -64.41969 7535 ft 259 kts 252°
2026-05-07 23:33 45.98705 -64.44449 7261 ft 257 kts 252°
2026-05-07 23:33 45.98212 -64.46927 6983 ft 256 kts 252°
2026-05-07 23:33 45.97724 -64.49385 6705 ft 255 kts 252°
2026-05-07 23:34 45.97235 -64.51829 6427 ft 254 kts 252°
2026-05-07 23:34 45.96754 -64.54244 6159 ft 253 kts 252°
2026-05-07 23:34 45.96269 -64.56672 5879 ft 252 kts 252°
2026-05-07 23:34 45.95785 -64.59085 5602 ft 250 kts 252°
2026-05-07 23:35 45.95302 -64.61494 5314 ft 250 kts 252°
2026-05-07 23:35 45.94823 -64.63900 5038 ft 250 kts 253°
2026-05-07 23:35 45.94348 -64.66257 4868 ft 239 kts 252°
2026-05-07 23:35 45.93889 -64.68504 4736 ft 229 kts 252°
2026-05-07 23:36 45.93599 -64.69939 4629 ft 221 kts 252°
2026-05-07 23:36 45.93183 -64.71999 4504 ft 208 kts 253°
2026-05-07 23:36 45.92785 -64.73993 4365 ft 206 kts 253°
2026-05-07 23:36 45.92411 -64.76636 4191 ft 208 kts 269°
2026-05-07 23:37 45.92798 -64.78622 4060 ft 210 kts 298°
2026-05-07 23:37 45.93395 -64.79767 3974 ft 214 kts 307°
2026-05-07 23:37 45.94407 -64.81354 3744 ft 216 kts 309°
2026-05-07 23:37 45.95419 -64.82895 3520 ft 210 kts 309°
2026-05-07 23:38 45.96482 -64.84289 3374 ft 206 kts 322°
2026-05-07 23:38 45.97828 -64.84927 3256 ft 206 kts 354°
2026-05-07 23:38 45.99201 -64.84385 3060 ft 209 kts 31°
2026-05-07 23:38 46.00305 -64.83002 2959 ft 212 kts 45°
2026-05-07 23:39 46.01369 -64.81534 2694 ft 211 kts 39°
2026-05-07 23:39 46.02474 -64.80134 2409 ft 210 kts 40°
2026-05-07 23:39 46.03542 -64.78729 2132 ft 206 kts 41°
2026-05-07 23:39 46.04586 -64.77349 1835 ft 202 kts 40°
2026-05-07 23:40 46.05611 -64.76005 1566 ft 196 kts 41°
2026-05-07 23:40 46.06595 -64.74708 1305 ft 186 kts 41°
2026-05-07 23:40 46.07516 -64.73499 1057 ft 173 kts 41°
2026-05-07 23:40 46.08376 -64.72337 823 ft 165 kts 42°
2026-05-07 23:41 46.09195 -64.71264 636 ft 154 kts 40°
2026-05-07 23:41 46.09959 -64.70269 439 ft 143 kts 41°
2026-05-07 23:41 46.10668 -64.69335 269 ft 135 kts 41°
2026-05-07 23:41 46.11321 -64.68478 226 ft 107 kts 42°
2026-05-07 23:42 46.11699 -64.67978 225 ft 40 kts 43°
2026-05-07 23:42 46.11807 -64.67845 223 ft 13 kts 31°
2026-05-07 23:42 46.11858 -64.67840 224 ft 1 kts 315°
2026-05-07 23:43 46.11859 -64.67841 224 ft 1 kts 314°
2026-05-07 23:43 46.11906 -64.67931 225 ft 17 kts 304°
2026-05-07 23:43 46.11872 -64.68070 225 ft 17 kts 225°
2026-05-07 23:43 46.11779 -64.68197 225 ft 20 kts 222°
2026-05-07 23:44 46.11671 -64.68337 225 ft 22 kts 222°
2026-05-07 23:44 46.11566 -64.68476 225 ft 18 kts 223°
2026-05-07 23:44 46.11489 -64.68579 225 ft 12 kts 223°
2026-05-07 23:44 46.11460 -64.68673 225 ft 11 kts 281°
2026-05-07 23:45 46.11507 -64.68760 226 ft 7 kts 316°
2026-05-07 23:45 46.11523 -64.68782 225 ft 3 kts 316°
2026-05-07 23:45 46.11533 -64.68796 225 ft 0 kts 316°